Change the Weather History Date:

Tuesday, September 3, 2013

  Actual Average Record
Temperature  
Mean Temperature 66 °F -  
Max Temperature 73 °F 72 °F 91 °F (2003)
Min Temperature 58 °F 50 °F 42 °F (1999)
Growing Degree Days 16 (Base 50)    
Moisture  
Dew Point 60 °F    
Average Humidity 89    
Maximum Humidity 100    
Minimum Humidity 56    
Precipitation  
Precipitation 0.68 in - - ()
Sea Level Pressure  
Sea Level Pressure 29.99 in    
Wind  
Wind Speed 3 mph (WNW)    
Max Wind Speed 7 mph    
Max Gust Speed -    
Visibility 9 miles    
Events Rain , Thunderstorm    
Averages and records for this station are not official NWS values.
T = Trace of Precipitation, MM = Missing Value Source: NWS Daily Summary

Daily Weather History Graph

Daily Weather History Graph

Search for Another Location

Airport or City:

Trip Planner

Search our weather history database for the weather conditions in past years. The results will help you decide how hot, cold, wet, or windy it might be!

Date:

Astronomy

Sep. 03, 2013 Rise Set
Actual Time 6:32 AM PDT 7:45 PM PDT
Civil Twilight 6:01 AM PDT 8:16 PM PDT
Nautical Twilight 5:23 AM PDT 8:54 PM PDT
Astronomical Twilight 4:43 AM PDT 9:34 PM PDT
Moon 4:48 AM PDT (9/3) 6:36 PM PDT (9/3)
Length of Visible Light 14h 15m
Length of Day
13h 12m
Waning Crescent, 3% of the Moon is Illuminated
Sep 3
Waning Crescent
Sep 5
New
Sep 12
First Quarter
Sep 19
Full
Sep 26
Last Quarter

Hourly Weather History & Observations

Time (PDT) Temp. Dew Point Humidity Pressure Visibility Wind Dir Wind Speed Gust Speed Precip Events Conditions
12:40 AM 62.6 °F 57.2 °F 82% 29.96 in 10.0 mi Calm Calm - N/A   Light Drizzle
12:58 AM 63.1 °F 56.8 °F 80% 29.96 in 5.0 mi NNW 2.3 mph - 0.02 in Rain Light Rain
1:58 AM 60.8 °F 59.7 °F 96% 29.96 in 10.0 mi South 2.3 mph - 0.05 in   Light Drizzle
2:03 AM 60.8 °F 59.0 °F 94% 29.96 in 10.0 mi SE 4.6 mph - N/A   Overcast
2:06 AM 60.8 °F 59.0 °F 94% 29.96 in 10.0 mi SE 4.6 mph - N/A   Light Drizzle
2:58 AM 60.6 °F 59.4 °F 96% 29.97 in 10.0 mi South 2.3 mph - 0.06 in Rain Light Rain
3:46 AM 60.8 °F 59.0 °F 94% 29.97 in 9.0 mi South 3.5 mph - N/A Rain Light Rain
3:58 AM 60.4 °F 59.4 °F 96% 29.97 in 5.0 mi Variable 2.3 mph - 0.09 in Rain Light Rain
4:58 AM 59.4 °F 58.5 °F 97% 29.98 in 5.0 mi South 4.6 mph - 0.15 in Rain Light Rain
5:09 AM 59.0 °F 59.0 °F 100% 29.97 in 10.0 mi West 1.2 mph - N/A   Overcast
5:10 AM 59.0 °F 59.0 °F 100% 29.97 in 10.0 mi WSW 1.2 mph - N/A   Light Drizzle
5:20 AM 59.0 °F 59.0 °F 100% 29.95 in 10.0 mi WNW 5.8 mph - N/A   Overcast
5:24 AM 59.0 °F 59.0 °F 100% 29.96 in 10.0 mi NW 1.2 mph - N/A   Light Drizzle
5:36 AM 59.0 °F 59.0 °F 100% 29.95 in 7.0 mi West 2.3 mph - N/A Rain Light Rain
5:58 AM 59.2 °F 58.5 °F 97% 29.97 in 6.0 mi Calm Calm - 0.05 in Rain Light Rain
6:58 AM 59.2 °F 58.6 °F 98% 29.99 in 1.8 mi Calm Calm - 0.08 in Rain Rain
6:59 AM 59.0 °F 59.0 °F 100% 29.98 in 1.5 mi Calm Calm - N/A Rain , Thunderstorm Light Thunderstorms and Rain
7:04 AM 59.0 °F 59.0 °F 100% 29.98 in 3.0 mi West 3.5 mph - N/A Rain , Thunderstorm Light Thunderstorms and Rain
7:13 AM 59.0 °F 59.0 °F 100% 29.97 in 10.0 mi West 4.6 mph - N/A   Overcast
7:17 AM 59.0 °F 59.0 °F 100% 29.98 in 10.0 mi WSW 2.3 mph - N/A   Light Drizzle
7:58 AM 58.8 °F 58.3 °F 98% 29.99 in 9.0 mi West 2.3 mph - 0.04 in   Light Drizzle
7:59 AM 59.0 °F 59.0 °F 100% 29.98 in 8.0 mi West 3.5 mph - N/A Rain Light Rain
8:30 AM 59.0 °F 59.0 °F 100% 29.99 in 7.0 mi WSW 3.5 mph - N/A Rain Light Rain
8:35 AM 59.0 °F 59.0 °F 100% 29.99 in 8.0 mi Variable 2.3 mph - N/A Rain Light Rain
8:40 AM 59.0 °F 59.0 °F 100% 29.99 in 10.0 mi West 1.2 mph - N/A   Light Drizzle
8:50 AM 59.0 °F 59.0 °F 100% 29.99 in 3.0 mi West 3.5 mph - N/A Rain Rain
8:55 AM 59.0 °F 59.0 °F 100% 29.99 in 2.5 mi NW 1.2 mph - N/A Rain Rain
8:58 AM 59.2 °F 58.6 °F 98% 30.00 in 2.5 mi West 2.3 mph - 0.09 in Rain Light Rain
9:03 AM 59.0 °F 59.0 °F 100% 29.99 in 4.0 mi Calm Calm - N/A Rain Light Rain
9:58 AM 59.9 °F 59.4 °F 98% 30.00 in 9.0 mi SSE 1.2 mph - 0.05 in Rain Light Rain
10:03 AM 60.8 °F 59.0 °F 94% 29.99 in 10.0 mi NE 1.2 mph - N/A   Light Drizzle
10:07 AM 60.8 °F 59.0 °F 94% 29.99 in 10.0 mi East 2.3 mph - N/A   Overcast
10:33 AM 60.8 °F 59.0 °F 94% 29.99 in 10.0 mi North 3.5 mph - N/A   Overcast
10:58 AM 62.1 °F 60.8 °F 96% 30.00 in 10.0 mi WSW 2.3 mph - 0.00 in   Overcast
11:53 AM 62.6 °F 60.8 °F 94% 30.01 in 10.0 mi West 5.8 mph - N/A   Overcast
11:58 AM 63.1 °F 61.3 °F 94% 30.01 in 10.0 mi WNW 5.8 mph - N/A   Overcast
12:12 PM 62.6 °F 60.8 °F 94% 30.01 in 10.0 mi NNW 3.5 mph - N/A   Overcast
12:22 PM 62.6 °F 62.6 °F 100% 30.00 in 10.0 mi WNW 3.5 mph - N/A   Overcast
12:27 PM 64.4 °F 60.8 °F 88% 30.00 in 10.0 mi Variable 4.6 mph - N/A   Overcast
12:37 PM 64.4 °F 62.6 °F 94% 30.00 in 10.0 mi NW 5.8 mph - N/A   Overcast
12:48 PM 64.4 °F 62.6 °F 94% 30.00 in 10.0 mi NW 4.6 mph - N/A   Overcast
12:58 PM 64.8 °F 61.2 °F 88% 30.01 in 10.0 mi WNW 4.6 mph - N/A   Overcast
1:03 PM 64.4 °F 60.8 °F 88% 30.00 in 10.0 mi WNW 4.6 mph - N/A   Overcast
1:08 PM 64.4 °F 60.8 °F 88% 30.01 in 10.0 mi Variable 2.3 mph - N/A   Overcast
1:13 PM 66.2 °F 60.8 °F 83% 30.01 in 10.0 mi WNW 2.3 mph - N/A   Overcast
1:18 PM 66.2 °F 62.6 °F 88% 30.01 in 10.0 mi Variable 3.5 mph - N/A   Overcast
1:23 PM 66.2 °F 62.6 °F 88% 30.01 in 10.0 mi NW 3.5 mph - N/A   Overcast
1:28 PM 66.2 °F 60.8 °F 83% 30.00 in 10.0 mi Variable 1.2 mph - N/A   Overcast
1:33 PM 66.2 °F 62.6 °F 88% 30.00 in 10.0 mi Variable 3.5 mph - N/A   Overcast
2:55 PM 70.5 °F 61.3 °F 73% 30.01 in 10.0 mi Calm Calm - N/A   Scattered Clouds
3:55 PM 71.1 °F 61.2 °F 71% 30.01 in 10.0 mi Variable 4.6 mph - N/A   Scattered Clouds
4:55 PM 73.0 °F 60.8 °F 65% 30.00 in 10.0 mi NW 4.6 mph - N/A   Partly Cloudy
5:58 PM 73.2 °F 60.4 °F 64% 30.00 in 10.0 mi WNW 5.8 mph - N/A   Clear
6:58 PM 72.9 °F 56.3 °F 56% 30.00 in 10.0 mi NW 6.9 mph - N/A   Clear
7:19 PM 71.6 °F 57.2 °F 60% 29.99 in 10.0 mi WNW 6.9 mph - N/A Rain Heavy Rain
7:31 PM 69.8 °F 57.2 °F 64% 29.99 in 10.0 mi NW 3.5 mph - N/A   Clear
7:44 PM 69.8 °F 59.0 °F 68% 29.99 in 10.0 mi NW 3.5 mph - N/A Rain Light Rain
7:58 PM 69.1 °F 58.6 °F 69% 30.00 in 10.0 mi NW 3.5 mph - 0.00 in Rain Light Rain
8:11 PM 68.0 °F 59.0 °F 73% 29.99 in 10.0 mi NNW 2.3 mph - N/A   Clear
8:13 PM 68.0 °F 59.0 °F 73% 29.99 in 10.0 mi NNW 2.3 mph - N/A Rain Light Rain
8:32 PM 68.0 °F 59.0 °F 73% 30.00 in 10.0 mi Variable 4.6 mph - N/A   Clear
8:58 PM 67.3 °F 59.0 °F 75% 30.01 in 10.0 mi West 2.3 mph - 0.00 in   Clear
9:58 PM 64.6 °F 59.5 °F 84% 30.03 in 10.0 mi SE 2.3 mph - N/A   Clear
10:58 PM 63.9 °F 59.0 °F 84% 30.04 in 10.0 mi West 2.3 mph - N/A   Partly Cloudy
11:58 PM 63.1 °F 58.6 °F 85% 30.04 in 10.0 mi Calm Calm - N/A   Partly Cloudy